CAPE
269 249 144 384 478 540 479 457 698 712 591 517 726 691 820 754 952 1131 897 851 852 868 898 932 888 708 890 824 1198 978 795 891 873 929 1083 1150 1056 888 835 923 1091 1171 1069
286 363 342 310 463 438 392 590 498 863 591 493 640 516 532 567 743 994 1131 1063 922 729 698 828 911 890 613 655 920 1059 777 847 734 514 506 517 598 668 857 959 1166 1050 663
121 234 371 453 558 511 377 550 616 811 757 708 502 333 270 344 498 752 900 788 961 915 874 913 935 806 929 1000 760 715 853 934 904 917 595 634 668 778 1001 1153 1237 979 667
52 67 160 186 215 342 491 623 623 848 814 825 609 396 328 291 46 213 643 906 941 960 962 952 870 949 1001 1050 1132 1083 1143 1159 971 883 811 739 657 743 670 419 94 247 152
56 38 35 62 115 158 193 261 414 706 941 870 733 721 720 745 829 928 1015 1066 1137 1057 1000 1005 994 1113 1050 979 995 927 1150 1149 1146 1178 961 913 913 803 724 635 590 487 380
54 53 69 42 11 14 22 63 148 229 325 578 806 970 914 1199 1316 1267 1225 1165 1253 1243 1137 1172 1100 1050 1147 1164 1020 947 1072 962 1189 1154 1014 983 965 849 731 779 776 719 628
0 5 5 3 8 8 1 0 5 16 51 148 327 521 718 818 916 930 1063 1089 1032 917 922 1016 1028 1022 1022 1058 1111 998 1033 885 966 1246 1084 948 953 886 744 685 668 619 696
1 3 3 3 0 1 0 0 0 2 0 6 78 118 240 377 395 534 601 557 721 699 663 700 758 836 941 1025 1044 999 947 950 1093 943 901 954 939 954 814 855 868 691 540
0 0 0 0 0 0 0 0 0 0 0 0 0 23 63 118 82 192 480 540 628 647 554 616 695 763 759 359 729 898 887 895 910 814 751 736 706 597 538 494 600 699 794
0 0 0 0 0 0 0 0 0 0 0 0 0 77 45 0 0 0 0 0 0 0 0 28 13 92 6 0 68 273 578 592 488 385 401 482 279 309 290 216 556 661 663
0 0 0 0 0 0 0 0 0 0 0 6 0 0 0 0 0 0 0 0 0 0 0 0 0 0 0 0 0 0 1 0 15 128 332 405 516 581 613 377 247 412 579
0 0 0 0 0 0 0 0 0 0 0 0 0 0 0 0 0 0 0 0 0 0 0 0 0 0 0 0 0 0 0 0 0 0 4 142 252 349 409 476 479 342 368
0 0 0 0 0 0 0 0 0 0 0 0 0 0 0 0 0 0 0 0 0 0 0 0 0 0 0 0 0 0 0 0 0 0 0 0 76 273 205 211 232 301 336
0 0 0 0 0 0 0 0 0 0 0 0 0 0 0 0 0 0 0 0 0 0 0 0 0 0 0 0 0 0 0 0 0 0 0 0 27 128 231 178 246 244 235
0 0 0 0 0 0 0 0 0 0 0 0 0 0 0 0 0 0 0 0 0 0 0 0 0 0 0 0 0 0 0 0 0 0 0 0 0 50 41 122 151 169 296
0 0 0 0 0 0 0 0 0 0 0 0 0 0 0 0 0 0 0 0 0 0 0 0 0 0 0 0 0 0 0 0 0 0 0 0 1 31 106 166 217 113 84
0 0 0 0 0 0 0 0 0 0 0 0 0 0 0 0 0 0 0 0 0 0 0 0 0 0 0 0 0 0 0 0 0 0 0 0 0 5 0 39 101 206 140
0 0 0 0 0 0 0 0 0 0 0 0 0 0 0 0 0 0 0 0 0 0 0 0 0 0 0 0 0 0 0 3 1 0 1 3 4 4 4 10 20 10 2
0 0 0 0 0 0 0 0 0 0 0 0 0 0 0 0 0 0 0 0 0 0 0 0 0 0 0 2 0 0 0 0 1 1 0 0 0 5 6 4 1 0 1
0 0 0 0 0 0 0 0 0 0 0 0 0 0 0 0 0 0 0 0 0 0 0 0 0 0 1 1 2 1 1 6 3 4 5 2 0 0 2 3 1 0 1
0 0 0 0 0 0 0 0 0 0 0 0 0 0 0 0 0 0 0 0 0 1 1 1 1 0 0 2 1 0 1 2 8 7 5 4 3 1 0 2 3 3 2
0 0 0 0 0 0 0 0 0 0 0 0 0 0 0 0 0 0 0 0 1 1 0 1 3 4 4 5 1 4 6 9 18 11 3 3 0 1 0 0 0 0 2
0 0 0 0 0 0 0 0 0 0 0 0 0 0 0 0 0 0 0 0 1 0 2 2 1 2 3 5 8 1 3 4 3 11 15 13 1 1 0 0 0 0 2
0 0 0 0 0 0 0 0 0 0 0 0 0 0 0 1 0 1 0 0 1 3 2 3 3 4 4 2 5 8 11 7 2 1 3 12 13 4 0 0 0 0 0
0 0 0 0 0 0 0 0 0 0 0 0 0 0 0 0 0 0 0 0 0 1 2 3 2 3 4 5 6 6 3 0 0 2 2 2 4 5 3 0 0 0 0
0 0 0 0 0 0 0 0 0 0 0 0 0 0 0 0 0 0 0 1 0 1 4 3 4 3 5 4 4 3 1 0 1 1 2 2 2 1 1 2 1 1 0
CIN
-48 -61 -73 -51 -51 -52 -48 -49 -51 -54 -69 -69 -65 -64 -56 -54 -36 -32 -38 -39 -39 -35 -44 -39 -46 -69 -60 -75 -74 -77 -68 -70 -42 -65 -93 -80 -72 -85 -82 -83 -97 -102 -101
-71 -43 -50 -56 -49 -45 -37 -56 -52 -46 -66 -79 -74 -73 -69 -62 -52 -37 -22 -26 -34 -38 -38 -40 -33 -42 -52 -68 -65 -58 -66 -71 -56 -59 -91 -96 -91 -104 -84 -84 -62 -87 -152
-108 -81 -49 -50 -45 -38 -47 -44 -40 -35 -43 -58 -75 -78 -85 -69 -64 -57 -43 -32 -34 -40 -37 -36 -37 -36 -31 -40 -53 -54 -58 -53 -64 -59 -73 -118 -116 -105 -78 -76 -68 -92 -146
-88 -139 -98 -98 -106 -90 -77 -50 -27 -31 -31 -35 -53 -66 -61 -64 -126 -75 -40 -30 -32 -31 -35 -35 -40 -37 -33 -29 -25 -26 -29 -29 -41 -48 -59 -71 -115 -92 -133 -186 -255 -222 -255
-82 -106 -133 -120 -136 -153 -151 -136 -68 -40 -38 -37 -35 -42 -42 -41 -40 -29 -22 -20 -17 -21 -27 -30 -34 -28 -28 -32 -22 -22 -20 -22 -25 -25 -24 -41 -52 -57 -50 -114 -139 -166 -191
-52 -91 -86 -105 -126 -182 -156 -156 -151 -134 -96 -68 -56 -42 -32 -28 -26 -21 -18 -16 -18 -14 -21 -21 -27 -31 -28 -30 -33 -43 -36 -25 -16 -23 -26 -26 -41 -44 -59 -65 -75 -102 -137
0 -69 -62 -98 -134 -164 -58 0 -190 -229 -213 -157 -149 -96 -53 -51 -45 -40 -39 -40 -41 -44 -38 -32 -32 -29 -32 -33 -24 -28 -33 -50 -44 -24 -20 -29 -34 -55 -45 -58 -94 -126 -131
0 0 0 0 0 -175 0 0 0 -116 0 -204 -187 -183 -149 -112 -126 -100 -90 -71 -65 -67 -59 -56 -55 -59 -51 -35 -30 -33 -36 -33 -37 -49 -52 -46 -46 -52 -61 -41 -61 -133 -200
0 0 0 0 0 0 0 0 0 0 0 0 -14 -231 -200 -139 -213 -156 -85 -69 -58 -57 -82 -80 -59 -61 -71 -146 -72 -45 -59 -67 -61 -56 -65 -68 -80 -107 -115 -134 -112 -68 -86
0 0 0 0 0 0 0 0 0 0 0 0 -5 -120 -173 0 0 0 0 0 0 0 0 -192 -208 -173 -272 0 -208 -145 -90 -88 -98 -123 -119 -120 -164 -156 -154 -167 -85 -57 -56
0 0 0 0 0 0 0 0 0 0 0 -133 0 0 0 0 0 0 0 0 0 0 0 0 0 0 0 0 0 0 -12 0 -179 -192 -144 -148 -131 -115 -107 -149 -154 -84 -56
0 0 0 0 0 0 0 0 0 0 0 0 0 0 0 0 0 0 0 0 0 0 0 0 0 0 0 0 0 0 0 0 0 0 -132 -220 -173 -146 -133 -110 -112 -127 -96
0 0 0 0 0 0 0 0 0 0 0 0 0 0 0 0 0 0 0 0 0 0 0 0 0 0 0 0 0 0 0 0 0 0 0 0 -197 -153 -183 -164 -146 -141 -143
0 0 0 0 0 0 0 0 0 0 0 0 0 0 0 0 0 0 0 0 0 0 0 0 0 0 0 0 0 0 0 0 0 0 0 0 -265 -184 -152 -141 -121 -123 -119
0 0 0 0 0 0 0 0 0 0 0 0 0 0 0 0 0 0 0 0 0 0 0 0 0 0 0 0 0 0 0 0 0 0 0 0 0 -228 -259 -149 -120 -106 -58
0 0 0 0 0 0 0 0 0 0 0 0 0 0 0 0 0 0 0 0 0 0 0 0 0 0 0 0 0 0 0 0 0 0 0 -1 -1 -121 -114 -105 -71 -104 -117
0 0 0 0 0 0 0 0 0 0 0 0 0 0 0 0 0 0 0 0 0 0 0 0 0 0 0 0 0 0 0 0 0 0 0 -1 -2 -7 -4 -92 -55 -25 -53
0 0 0 0 0 0 0 0 0 0 0 0 0 0 0 0 0 0 0 0 0 0 0 0 0 0 0 0 0 0 0 -1 -1 -3 -1 0 0 0 0 -2 -2 -2 -1
0 0 0 0 0 0 0 0 0 0 0 0 0 0 0 0 0 0 0 0 0 0 0 0 0 0 0 0 0 0 0 0 -1 -1 0 0 0 0 0 0 0 0 0
0 0 0 0 0 0 0 0 0 0 0 0 0 0 0 0 0 0 0 0 0 0 0 0 0 0 0 0 0 0 0 0 -1 -1 -1 -4 -2 0 0 0 0 0 0
0 0 0 0 0 0 0 0 0 0 0 0 0 0 0 0 0 0 0 0 0 0 0 0 0 0 0 0 -1 0 0 -4 0 -1 0 0 0 0 0 0 0 0 0
0 0 0 0 0 0 0 0 0 0 0 0 0 0 0 0 0 0 0 0 0 0 0 0 0 0 0 0 0 0 0 0 0 -1 -1 -1 0 0 0 0 0 0 0
0 0 0 0 0 0 0 0 0 0 0 0 0 0 0 0 0 0 0 0 0 0 0 0 0 0 0 0 0 0 0 -1 -1 -2 -2 -1 0 0 0 0 0 0 0
0 0 0 0 0 0 0 0 0 0 0 0 0 0 0 0 0 0 0 0 0 0 0 0 0 0 0 0 0 0 0 0 0 0 -1 -1 0 -1 0 0 0 0 0
0 0 0 0 0 0 0 0 0 0 0 0 0 0 0 0 0 0 0 0 0 0 0 0 0 0 0 0 0 0 0 0 0 0 0 0 -1 0 0 0 0 0 0
0 0 0 0 0 0 0 0 0 0 0 0 0 0 0 0 0 0 0 0 0 0 0 0 0 0 0 0 0 0 0 0 0 0 0 0 0 0 0 0 0 0 0
Wind_Speed
18 23 24 27 30 30 29 29 27 27 27 27 26 23 24 23 24 25 25 24 24 23 23 24 25 26 25 25 23 20 19 17 21 20 18 25 26 28 28 29 29 29 29
20 25 26 27 30 34 33 32 31 30 28 29 26 23 25 25 24 24 26 25 25 25 25 24 24 24 26 26 26 25 22 17 16 29 23 26 28 32 31 28 27 29 31
19 19 23 25 28 33 35 33 32 32 29 26 27 28 27 27 26 26 27 27 26 26 26 26 25 24 25 25 25 26 25 23 18 18 25 21 21 20 25 25 26 29 31
16 16 19 20 23 26 29 31 31 31 32 29 27 30 28 28 28 29 30 29 28 28 28 27 27 27 26 27 27 27 26 26 15 14 16 19 19 19 20 22 30 27 35
20 20 20 19 20 23 24 25 26 27 30 30 30 31 31 29 28 28 26 28 30 30 30 30 29 28 28 29 29 28 29 29 29 25 27 19 9 18 14 19 17 28 33
12 22 22 19 18 20 20 23 22 23 26 27 29 31 33 31 29 30 29 28 29 30 31 31 30 30 31 31 30 28 27 25 26 20 24 21 19 13 12 14 13 22 21
10 14 17 17 21 22 21 21 22 22 24 25 25 27 30 32 32 31 30 29 29 29 29 31 32 31 32 33 33 32 32 20 10 5 10 6 9 5 6 7 8 23 19
12 12 14 16 18 24 25 25 26 25 25 27 25 27 28 27 28 28 29 29 31 31 31 31 33 34 35 35 36 36 37 37 36 26 8 9 9 9 12 10 14 23 23
13 14 15 15 14 17 19 26 25 26 26 26 25 26 25 26 27 28 26 27 29 31 31 30 31 32 33 33 34 37 39 39 37 37 39 21 17 17 20 23 21 19 19
15 15 16 16 15 15 14 15 15 20 23 22 21 21 18 19 20 22 21 24 26 28 30 29 27 26 27 29 31 33 37 38 37 38 38 38 32 30 25 19 21 19 21
15 15 16 16 16 17 16 17 18 17 17 15 13 17 19 19 21 24 24 25 27 29 29 30 29 30 32 32 32 34 35 37 39 38 38 36 34 31 29 24 21 20 22
16 16 17 17 17 17 16 16 16 16 17 17 17 19 21 22 23 26 27 28 29 29 29 29 31 33 33 34 34 33 35 35 35 36 37 37 36 35 31 27 25 23 21
17 18 18 18 18 18 18 18 18 19 19 19 19 20 22 23 25 28 27 28 30 31 32 33 34 35 35 35 35 36 36 34 35 35 37 38 35 34 33 32 30 28 26
18 19 18 18 18 19 18 19 20 22 23 24 25 26 27 28 30 32 32 32 33 32 34 35 35 36 36 36 36 36 35 35 36 36 36 36 36 34 34 33 34 33 31
17 17 18 18 19 19 19 20 20 21 21 23 25 27 30 31 33 35 36 36 36 36 37 36 38 38 39 39 38 37 37 37 37 37 38 38 39 38 37 35 34 35 33
16 17 18 19 19 19 19 20 20 21 21 22 24 26 27 30 34 36 37 38 37 37 36 39 40 40 41 41 41 41 40 39 39 39 39 39 40 39 40 39 36 37 38
15 16 16 17 18 19 20 20 22 21 20 22 25 26 28 31 34 35 36 36 34 35 37 39 40 40 40 40 40 41 43 42 42 41 41 41 41 39 40 40 39 37 39
13 14 14 15 16 17 18 20 21 23 25 27 27 28 30 32 33 34 36 35 36 36 37 40 41 41 42 42 41 42 42 41 41 41 41 40 40 41 42 41 40 40 42
12 12 13 14 16 17 18 20 22 23 25 28 30 30 32 35 34 34 35 35 37 39 40 42 42 43 44 44 45 46 47 46 44 44 43 44 45 45 46 45 45 46 45
12 12 13 14 16 18 20 21 23 25 27 29 30 32 34 36 37 38 38 40 41 43 44 45 46 46 47 48 49 49 49 47 47 47 47 47 46 45 48 48 47 48 47
13 14 14 16 18 20 21 23 25 27 29 30 32 33 36 37 38 39 41 42 43 45 47 49 50 51 51 51 52 54 53 54 51 50 49 49 49 50 48 49 49 48 48
13 14 15 16 18 20 22 24 26 28 30 33 34 35 37 37 39 41 43 44 45 46 48 50 51 51 52 53 54 54 55 56 55 53 53 52 51 52 52 52 52 52 52
14 15 16 18 19 21 23 25 27 29 32 33 35 36 37 38 40 42 44 46 47 49 50 51 53 54 54 54 54 56 58 59 58 58 60 59 58 56 54 55 56 56 55
15 16 18 19 21 22 24 26 27 29 31 34 35 36 37 38 41 44 45 47 48 49 49 50 52 54 55 56 56 56 56 58 59 61 62 63 63 62 61 60 59 59 57
15 16 19 21 22 23 25 26 27 29 31 32 33 35 37 38 41 44 46 47 48 49 49 49 50 51 53 55 57 58 58 59 59 59 58 60 63 64 63 63 62 61 60
16 16 18 20 22 22 24 26 27 29 30 31 31 34 35 37 40 43 44 45 46 46 47 46 48 50 51 51 52 53 55 57 58 59 58 60 61 62 61 62 62 61 61
Wind_Direction
273 264 260 258 251 244 247 243 252 249 248 239 241 260 247 255 242 241 232 239 244 250 258 250 255 257 260 264 279 299 310 321 307 317 331 312 310 307 297 321 331 337 339
274 264 262 262 258 248 246 249 251 256 258 247 256 267 259 253 255 253 233 237 237 245 251 262 254 268 263 266 272 284 302 322 329 261 320 314 314 294 308 329 335 331 326
279 274 266 265 263 256 248 250 254 254 261 269 260 258 257 258 261 258 236 234 233 245 250 257 251 265 262 269 279 276 292 305 325 329 319 333 335 339 331 331 332 329 326
274 281 273 275 273 272 267 263 263 259 258 266 270 260 265 268 266 259 253 254 258 249 249 251 248 251 248 258 262 260 282 298 335 342 342 340 345 349 349 344 322 334 314
265 269 274 279 284 282 280 279 276 274 268 267 268 265 262 269 270 270 279 274 264 259 257 253 246 243 245 250 256 247 268 274 269 298 296 339 241 345 268 353 356 338 323
273 265 271 281 290 287 293 286 285 283 282 278 272 268 261 265 271 267 270 274 273 269 264 263 262 258 256 251 247 241 238 237 242 232 245 240 242 235 237 292 358 349 351
304 282 277 296 292 280 285 290 291 289 289 283 283 281 274 271 270 272 274 277 278 280 281 277 274 277 275 269 261 259 257 230 218 233 231 250 243 296 331 272 320 338 340
325 315 310 315 311 275 275 286 292 290 292 286 286 281 280 283 283 282 281 281 281 282 284 286 285 281 279 277 274 271 272 276 284 287 269 270 292 298 321 309 323 328 329
332 329 331 336 335 314 286 282 289 291 284 289 292 288 288 289 289 288 289 287 288 286 289 293 293 292 294 294 290 284 284 286 293 294 290 311 308 310 317 322 322 325 325
342 334 334 333 333 330 336 329 343 307 290 294 298 301 301 304 306 303 304 300 296 295 296 298 303 307 307 305 302 299 294 296 299 298 299 300 308 310 313 311 316 316 321
343 343 340 338 333 326 328 326 314 321 314 316 311 313 302 307 305 303 308 307 303 300 300 300 302 305 304 305 306 304 300 299 298 299 300 303 306 308 310 312 311 309 312
337 336 334 333 332 332 332 330 329 324 313 313 310 309 310 311 312 306 307 304 304 302 301 303 304 301 304 306 307 308 305 305 303 301 302 304 304 305 307 309 308 307 304
327 325 323 324 325 325 323 322 319 317 316 316 318 319 316 314 316 315 315 311 306 300 299 298 298 298 301 305 307 306 306 308 307 306 302 302 307 308 307 307 308 309 306
316 317 321 322 320 319 319 318 314 311 308 306 305 303 302 302 306 307 306 308 306 305 303 300 300 301 303 306 308 310 310 308 307 306 305 305 307 309 308 309 309 310 310
315 316 316 318 317 317 319 317 316 317 315 310 309 306 302 302 303 302 302 304 304 304 302 303 303 304 303 304 306 308 310 310 307 307 305 305 304 305 304 307 307 307 307
312 314 314 314 316 317 317 316 320 319 318 318 316 312 308 308 308 307 306 303 303 305 304 302 301 302 302 303 303 303 305 305 306 307 306 305 304 304 303 303 305 305 304
311 313 315 316 316 315 316 316 313 318 321 323 320 318 318 314 311 312 312 312 312 310 305 303 302 303 304 304 304 304 302 303 304 303 304 304 304 304 304 303 302 304 305
313 316 318 320 322 323 323 322 320 317 313 315 319 318 318 317 316 315 314 314 311 312 310 306 304 305 304 304 305 305 304 304 304 302 303 304 305 305 304 303 303 302 301
311 316 320 322 323 324 323 322 321 320 318 315 314 315 317 316 316 317 317 315 311 309 309 307 306 305 304 304 303 302 300 300 301 301 300 299 300 299 298 299 299 299 300
308 313 317 320 320 321 321 321 320 319 318 317 316 316 316 316 315 315 315 313 311 309 307 305 304 304 303 302 301 300 299 298 297 296 296 296 297 297 295 295 296 296 297
307 308 312 316 318 320 321 321 322 321 320 319 318 318 318 317 317 316 315 314 312 310 308 305 304 302 302 300 300 297 296 294 295 295 295 294 294 292 294 293 292 294 294
302 308 311 313 316 317 319 321 321 321 321 320 319 320 320 320 318 317 316 315 314 312 310 308 306 304 302 300 298 296 295 293 293 292 291 291 291 290 290 289 289 288 289
292 300 306 309 311 314 317 318 319 320 321 322 322 322 322 322 322 321 320 318 316 314 312 310 307 305 303 301 300 296 294 292 290 289 287 286 286 286 286 286 286 286 285
285 292 300 305 308 310 313 316 319 321 323 323 324 324 324 325 325 324 324 323 321 318 316 313 310 307 305 303 301 298 295 293 291 288 286 284 283 283 283 283 282 282 282
280 286 292 300 304 307 311 315 318 321 323 325 326 327 327 326 327 326 326 325 324 321 320 318 315 312 309 306 303 300 297 294 291 289 287 285 282 281 280 280 279 279 278
276 285 290 296 302 304 308 312 314 318 320 323 325 327 328 328 330 330 330 330 328 326 323 321 319 316 313 311 308 305 302 299 294 290 287 284 282 280 279 278 277 276 275